This is the latest recevied weather packets stored in our database for station/object NC4M. If no packets are shown the sender has not sent any weather packets the latest 10 day(s).
| Time | Temp. | Humidity | Pressure | Rain* | Wind** | Luminosity | Snow |
|---|---|---|---|---|---|---|---|
| 1788018819 | 27.78° C | 60% | 1021.2 hPa | 0 mm | - | 67 W/m² | - |
| 1788018514 | 27.78° C | 62% | 1021.1 hPa | 0 mm | - | 333 W/m² | - |
| 1788018213 | 27.22° C | 63% | 1021.1 hPa | 0 mm | - | 73 W/m² | - |
| 1788017910 | 27.22° C | 67% | 1021.2 hPa | 0 mm | - | 273 W/m² | - |
| 1788017606 | 27.22° C | 62% | 1021.2 hPa | 0 mm | - | 57 W/m² | - |
| 1788017302 | 26.67° C | 65% | 1021.1 hPa | 0 mm | - | 72 W/m² | - |
| 1788016998 | 26.67° C | 64% | 1021.1 hPa | 0 mm | - | 60 W/m² | - |
| 1788016697 | 26.67° C | 62% | 1021.3 hPa | 0 mm | - | 60 W/m² | - |
| 1788016396 | 26.11° C | 65% | 1021.2 hPa | 0 mm | - | 60 W/m² | - |
| 1788016096 | 26.11° C | 68% | 1021.6 hPa | 0 mm | - | 62 W/m² | - |
| 1788015794 | 26.11° C | 70% | 1021.4 hPa | 0 mm | - | 71 W/m² | - |
| 1788015490 | 25.56° C | 69% | 1021.4 hPa | 0 mm | - | 64 W/m² | - |
| 1788015185 | 25.56° C | 74% | 1021.3 hPa | 0 mm | - | 62 W/m² | - |
| 1788014883 | 25° C | 71% | 1021.3 hPa | 0 mm | - | 70 W/m² | - |
| 1788014577 | 24.44° C | 73% | 1021.4 hPa | 0 mm | - | 68 W/m² | - |
| 1788014273 | 24.44° C | 72% | 1021.6 hPa | 0 mm | - | 56 W/m² | - |
| 1788013968 | 23.89° C | 72% | 1021.6 hPa | 0 mm | - | 51 W/m² | - |
| 1788013663 | 23.89° C | 74% | 1021.5 hPa | 0 mm | - | 53 W/m² | - |
| 1788013358 | 23.33° C | 78% | 1021.7 hPa | 0 mm | - | 51 W/m² | - |
| 1788013057 | 22.78° C | 77% | 1021.4 hPa | 0 mm | - | 47 W/m² | - |
| 1788012756 | 22.78° C | 80% | 1021.5 hPa | 0 mm | - | 54 W/m² | - |
| 1788012452 | 22.22° C | 81% | 1021.4 hPa | 0 mm | - | 44 W/m² | - |
| 1788012151 | 21.67° C | 80% | 1021.5 hPa | 0 mm | - | 43 W/m² | - |
| 1788011850 | 21.67° C | 81% | 1021.5 hPa | 0 mm | - | 41 W/m² | - |
| 1788011549 | 21.11° C | 82% | 1021.5 hPa | 0 mm | - | 39 W/m² | - |
* Rain latest hour (hover to see other rain measurements)
** Current wind speed in m/s (hover to see current wind gust speed)